#timestamp,LO_Frequency,Hit,StdDev 
1507086015.3,286047004.6,N
1507086035.2,286047004.5,N
1507086055.0,286047007.5,Y
1507086055.9,286047007.5,P
1507086075.8,286047001.7,N
1507086095.6,286047002.5,N
1507086115.4,286047002.3,N
1507086135.2,286047002.0,N
1507086155.1,286047001.5,N
1507086156.0,286047001.5,N
1507086175.8,286047000.6,N
1507086195.6,286047000.9,N
1507086215.5,286047000.1,N
1507086235.3,286046999.9,N
1507086255.1,286047000.0,N
1507086275.9,286047000.2,N
1507086295.7,286046998.3,N
1507086315.5,286046998.1,N
1507086335.4,286046995.9,N
1507086355.2,286046997.9,N
1507086375.0,286047002.8,N
1507086375.9,286047002.8,N
1507086395.8,286047003.5,N
1507086415.6,286047007.2,N
1507086435.4,286047009.6,Y
1507086455.3,286047009.7,P
1507086475.1,286047016.4,P
1507086476.0,286047016.4,N
1507086495.8,286047014.7,N
1507086515.7,286047015.6,N
1507086535.5,286047014.6,N
1507086555.3,286047015.0,N
1507086575.1,286047012.5,N
1507086595.9,286047017.9,Y
1507086615.7,286047003.5,P
1507086635.5,286047004.7,N
1507086655.4,286047007.2,N
1507086675.2,286047000.3,N
1507086695.0,286046998.4,N
1507086695.9,286046998.4,N
1507086715.8,286046999.3,N
1507086735.6,286046995.5,N
1507086755.4,286046996.9,N
1507086775.3,286046995.4,N
1507086795.1,286046996.3,N
1507086796.0,286046996.3,N
1507086815.8,286046993.3,N
1507086835.7,286046993.1,N
1507086855.5,286046991.2,N
1507086875.3,286046992.4,N
1507086895.2,286046998.3,N
1507086915.9,286046995.7,N
1507086935.7,286046996.4,N
1507086955.5,286046995.1,N
1507086975.4,286047001.6,N
1507086995.2,286046998.9,N
1507087015.0,286046997.8,N
1507087015.9,286046997.8,N
1507087035.8,286046997.8,N
1507087055.6,286046998.7,N
1507087075.4,286046999.0,N
1507087095.3,286046995.3,N
1507087115.1,286046996.2,N
1507087116.0,286046996.2,N
1507087135.8,286046991.0,N
1507087155.7,286046991.3,N
1507087175.5,286046987.4,Y
1507087195.3,286046990.7,P
1507087215.2,286046988.6,P
1507087235.9,286046988.5,P
1507087255.7,286046992.9,N
1507087275.6,286046992.4,N
1507087295.4,286046991.9,N
1507087315.2,286046994.5,N
1507087335.1,286046993.8,N
1507087336.0,286046993.8,N
1507087355.8,286046992.3,Y
1507087375.6,286046999.4,P
1507087395.5,286046998.7,N
1507087415.3,286046999.5,N
1507087435.1,286046998.8,N
1507087455.9,286046996.6,N
1507087475.7,286046995.3,N
1507087495.5,286046996.6,N
1507087515.3,286046998.0,N
1507087535.2,286046995.4,N
1507087555.0,286046993.9,N
1507087555.9,286046993.9,N
1507087575.8,286046992.3,Y
1507087595.6,286046995.2,P
1507087615.4,286046997.5,P
1507087635.2,286046997.3,N
1507087655.1,286046998.8,N
1507087656.0,286046998.8,N
1507087675.8,286046999.9,N
1507087695.6,286046999.3,N
1507087715.5,286046998.3,N
1507087735.3,286046997.8,N
1507087755.1,286046995.6,Y
1507087775.9,286046999.5,P
1507087795.7,286046995.7,P
1507087815.5,286046995.4,N
1507087835.4,286046996.1,N
1507087855.2,286046993.7,Y
1507087875.0,286046999.6,P
1507087875.9,286046999.6,N
1507087895.8,286047001.1,N
1507087915.6,286047002.5,N
1507087935.4,286047000.3,N
1507087955.3,286047000.3,N
1507087975.1,286047002.2,N
1507087976.0,286047002.2,N
1507087995.8,286047000.9,N
1507088015.7,286047000.9,N
1507088035.5,286047000.0,N
1507088055.3,286047003.6,N
1507088075.1,286047003.2,N
1507088095.9,286047005.3,Y
1507088115.7,286047003.0,P
1507088135.5,286047002.9,N
1507088155.4,286047004.5,P
1507088175.2,286047005.5,Y
1507088195.0,286047001.5,P
1507088196.0,286047001.5,N
1507088215.8,286047002.3,P
1507088235.6,286047002.5,Y
1507088255.5,286046998.2,P
1507088275.3,286046998.4,N
1507088295.1,286046998.7,N
1507088315.8,286046998.9,N
1507088335.7,286046999.0,N
1507088355.5,286046998.2,N
1507088375.3,286047001.0,N
1507088395.2,286046999.6,N
1507088415.9,286046998.9,N
1507088435.7,286046998.8,N
1507088455.6,286046999.7,N
1507088475.4,286047001.0,N
1507088495.2,286046998.4,N
1507088515.1,286047001.1,N
1507088516.0,286047001.1,N
1507088535.8,286047002.0,N
1507088555.6,286047000.1,N
1507088575.4,286047002.4,N
1507088595.3,286047001.3,N
1507088615.1,286047004.4,Y
1507088635.8,286047008.4,P
1507088655.7,286047009.0,N
1507088675.5,286047012.1,N
1507088695.3,286047012.0,N
1507088715.2,286047011.3,N
1507088735.9,286047010.1,N
1507088755.7,286047008.6,N
1507088775.6,286047008.3,N
1507088795.4,286047009.9,N
1507088815.2,286047010.6,Y
1507088835.1,286047000.5,P
1507088836.0,286047000.5,N
1507088855.8,286047002.2,N
1507088875.6,286047005.4,N
1507088895.5,286047007.4,N
1507088915.3,286047005.6,N
1507088935.1,286047004.1,N
1507088955.8,286047003.1,N
1507088975.7,286047004.4,N
1507088995.5,286047004.1,N
1507089015.3,286047005.4,N
1507089035.2,286047005.4,N
1507089055.9,286047003.9,N
1507089075.7,286047002.8,N
1507089095.6,286047004.3,N
1507089115.4,286046999.9,N
1507089135.2,286047010.2,Y
1507089155.1,286047006.4,P
1507089156.0,286047006.4,P
1507089175.8,286047009.2,P
1507089195.6,286047004.9,N
1507089215.5,286046999.7,N
1507089235.3,286047003.6,N
1507089255.1,286046998.8,N
1507089275.9,286046996.9,N
1507089295.7,286046998.2,N
1507089315.5,286046999.5,N
1507089335.3,286046996.4,N
1507089355.2,286046995.8,N
1507089375.0,286046995.4,N
1507089375.9,286046995.4,N
1507089395.7,286046993.1,N
1507089415.6,286046990.9,N
1507089435.4,286046991.5,N
1507089455.2,286046990.3,N
1507089475.1,286046991.1,N
1507089476.0,286046991.1,N
1507089495.8,286046991.1,N
1507089515.6,286046988.5,N
1507089535.5,286046990.5,N
1507089555.3,286046991.2,N
1507089575.1,286046991.5,N
1507089595.9,286046992.0,N
